CW8633 Weather Reports


time (UTC)temp
F
wind
direction
speed
knots
gust
knots
rain 1hr
in
rain 24hr
in
rain mn
in
humidity
%
barometer
mb
20260509074744 56 168 4.3 6.1 0.00 0.00 0.00 37 1014.4
20260509073730 58 154 1.7 4.3 0.00 0.00 0.00 43 1014.4
20260509072740 58 153 2.6 6.1 0.00 0.00 0.00 34 1014.4
20260509071727 58 148 3.5 4.3 0.00 0.00 0.00 34 1014.3
20260509070733 58 144 5.2 7.8 0.00 0.00 0.00 34 1014.3
20260509065745 58 154 5.2 7.0 0.00 0.00 0.00 37 1014.2
20260509064732 57 141 2.6 7.0 0.00 0.00 0.00 39 1014.2
20260509063742 56 152 4.3 6.1 0.00 0.00 0.00 39 1014.1
20260509062729 56 162 2.6 5.2 0.00 0.00 0.00 42 1014.0
20260509061736 55 163 3.5 6.1 0.00 0.00 0.00 43 1013.9
20260509060739 54 67 0.0 2.6 0.00 0.00 0.00 47 1013.9
20260509055731 54 67 1.7 4.3 0.00 0.00 0.00 47 1013.8
20260509054743 55 67 2.6 3.5 0.00 0.00 0.00 44 1013.8
20260509053731 55 67 0.0 0.9 0.00 0.00 0.00 42 1013.7
20260509052757 54 67 0.0 4.3 0.00 0.00 0.00 47 1013.7
20260509051742 54 66 3.5 5.2 0.00 0.00 0.00 46 1013.8
20260509050730 55 147 2.6 4.3 0.00 0.00 0.00 47 1013.8
20260509045741 56 175 0.9 3.5 0.00 0.00 0.00 45 1013.9
20260509044726 57 169 0.0 4.3 0.00 0.00 0.00 41 1013.8
20260509043734 59 88 3.5 5.2 0.00 0.00 0.00 37 1013.5
20260509042741 61 79 0.9 5.2 0.00 0.00 0.00 33 1013.5
20260509041754 62 79 3.5 7.0 0.00 0.00 0.00 31 1013.0
20260509040800 62 88 7.0 8.7 0.00 0.00 0.00 31 1013.2
20260509035732 61 105 4.3 6.1 0.00 0.00 0.00 32 1013.2
20260509034741 60 81 3.5 4.3 0.00 0.00 0.00 35 1013.3
20260509033733 61 78 2.6 4.3 0.00 0.00 0.00 36 1013.3
20260509032741 61 97 3.5 6.1 0.00 0.00 0.00 33 1013.2
20260509031729 62 101 0.9 2.6 0.00 0.00 0.00 34 1013.1
20260509030738 63 101 1.7 7.8 0.00 0.00 0.00 31 1013.0
20260509025737 63 103 4.3 7.0 0.00 0.00 0.00 32 1013.0
20260509024743 64 96 3.5 5.2 0.00 0.00 0.00 36 1012.9
20260509023730 66 93 0.0 3.5 0.00 0.00 0.00 30 1012.8
20260509022734 67 93 1.7 5.2 0.00 0.00 0.00 30 1012.6
20260509021743 67 107 2.6 5.2 0.00 0.00 0.00 29 1012.6
20260509020729 69 43 0.9 3.5 0.00 0.00 0.00 30 1012.4
20260509015743 70 360 1.7 3.5 0.00 0.00 0.00 30 1012.3
20260509014730 71 350 0.0 3.5 0.00 0.00 0.00 29 1012.1
20260509013735 72 350 0.9 4.3 0.00 0.00 0.00 27 1012.1
20260509012744 73 348 1.7 7.0 0.00 0.00 0.00 27 1011.9
20260509011731 74 360 2.6 4.3 0.00 0.00 0.00 24 1011.9
20260509010738 75 355 3.5 10.4 0.00 0.00 0.00 23 1011.8
20260509005727 76 5 3.5 9.6 0.00 0.00 0.00 22 1011.8
20260509004738 76 345 7.0 12.2 0.00 0.00 0.00 21 1011.7
20260509003745 77 344 6.1 13.0 0.00 0.00 0.00 20 1011.8
20260509002732 77 306 4.3 13.0 0.00 0.00 0.00 23 1011.9
20260509001737 77 355 5.2 8.7 0.00 0.00 0.00 22 1011.9
20260509000759 77 333 6.1 13.9 0.00 0.00 0.00 20 1012.0
20260508235756 77 315 6.1 11.3 0.00 0.00 0.00 20 1012.0
20260508234742 77 311 6.1 12.2 0.00 0.00 0.00 20 1012.1
20260508233745 76 337 6.1 12.2 0.00 0.00 0.00 21 1012.1
20260508232734 76 271 5.2 8.7 0.00 0.00 0.00 25 1012.1
20260508231726 75 213 3.5 10.4 0.00 0.00 0.00 27 1012.2
20260508230735 76 255 4.3 12.2 0.00 0.00 0.00 28 1012.2
20260508225727 75 215 6.1 9.6 0.00 0.00 0.00 26 1012.2
20260508224734 76 221 4.3 13.9 0.00 0.00 0.00 26 1012.3
20260508223800 76 299 4.3 8.7 0.00 0.00 0.00 25 1012.2
20260508222731 75 289 4.3 9.6 0.00 0.00 0.00 26 1012.5
20260508221739 75 267 7.0 9.6 0.00 0.00 0.00 24 1012.6
20260508220726 75 290 1.7 11.3 0.00 0.00 0.00 27 1012.7
20260508215741 74 331 6.1 11.3 0.00 0.00 0.00 25 1012.8
20260508214734 74 295 2.6 8.7 0.00 0.00 0.00 26 1013.0
20260508213800 75 284 5.2 13.9 0.00 0.00 0.00 26 1013.2
20260508212805 75 5 7.0 13.0 0.00 0.00 0.00 25 1013.2
20260508211731 74 284 4.3 9.6 0.00 0.00 0.00 26 1013.3
20260508210743 74 234 7.8 12.2 0.00 0.00 0.00 24 1013.3
20260508205740 74 238 4.3 16.5 0.00 0.00 0.00 27 1013.5
20260508204805 73 171 1.7 5.2 0.00 0.00 0.00 28 1013.6
20260508203729 73 278 0.0 8.7 0.00 0.00 0.00 29 1013.7
20260508202741 73 271 3.5 6.1 0.00 0.00 0.00 27 1013.8
20260508201806 74 17 2.6 8.7 0.00 0.00 0.00 28 1014.0
20260508200750 74 294 6.1 11.3 0.00 0.00 0.00 27 1014.0
20260508195742 73 238 2.6 9.6 0.00 0.00 0.00 30 1014.0
20260508194747 72 236 0.9 10.4 0.00 0.00 0.00 28 1014.1
20260508193754 71 209 1.7 9.6 0.00 0.00 0.00 31 1014.3
20260508192742 71 291 2.6 9.6 0.00 0.00 0.00 31 1014.4
20260508191730 69 257 3.5 7.0 0.00 0.00 0.00 31 1014.5
20260508190738 69 202 2.6 7.8 0.00 0.00 0.00 32 1014.6
20260508185730 68 229 2.6 7.0 0.00 0.00 0.00 33 1014.6
20260508184743 68 193 4.3 7.8 0.00 0.00 0.00 31 1014.8
20260508183730 69 186 1.7 11.3 0.00 0.00 0.00 33 1014.9
20260508182738 68 178 2.6 7.8 0.00 0.00 0.00 34 1014.9
20260508181803 68 204 1.7 7.0 0.00 0.00 0.00 33 1015.1
20260508180744 67 111 5.2 8.7 0.00 0.00 0.00 33 1015.2
20260508175740 67 126 3.5 7.0 0.00 0.00 0.00 32 1015.4
20260508174740 67 220 2.6 9.6 0.00 0.00 0.00 34 1015.4
20260508173726 66 171 4.3 8.7 0.00 0.00 0.00 31 1015.4
20260508172732 66 206 3.5 8.7 0.00 0.00 0.00 33 1015.4
20260508171738 66 212 3.5 7.0 0.00 0.00 0.00 33 1015.4
20260508170729 65 155 5.2 7.8 0.00 0.00 0.00 33 1015.5
20260508165757 64 173 5.2 8.7 0.00 0.00 0.00 37 1015.5
20260508164741 64 205 5.2 9.6 0.00 0.00 0.00 39 1015.4
20260508163745 63 185 6.1 9.6 0.00 0.00 0.00 41 1015.4
20260508162731 61 185 4.3 8.7 0.00 0.00 0.00 49 1015.4
20260508161738 60 192 4.3 8.7 0.00 0.00 0.00 56 1015.4
20260508160741 59 222 4.3 6.1 0.00 0.00 0.00 57 1015.4
20260508155731 58 205 2.6 6.1 0.00 0.00 0.00 56 1015.5
20260508154735 57 173 4.3 6.1 0.00 0.00 0.00 56 1015.5
20260508153744 56 200 3.5 5.2 0.00 0.00 0.00 56 1015.6
20260508152729 55 196 2.6 3.5 0.00 0.00 0.00 58 1015.6
20260508151735 55 244 1.7 4.3 0.00 0.00 0.00 66 1015.6
20260508150741 54 236 2.6 4.3 0.00 0.00 0.00 67 1015.5
20260508145733 52 252 0.9 1.7 0.00 0.00 0.00 69 1015.4
20260508144738 51 252 0.0 1.7 0.00 0.00 0.00 71 1015.3
20260508143741 51 252 0.9 2.6 0.00 0.00 0.00 72 1015.4
20260508142805 50 300 0.9 1.7 0.00 0.00 0.00 72 1015.3
20260508141735 49 319 0.0 2.6 0.00 0.00 0.00 75 1015.3
20260508140759 47 319 0.9 1.7 0.00 0.00 0.00 76 1015.3
20260508135801 46 316 0.9 1.7 0.00 0.00 0.00 76 1015.2
20260508134745 45 322 0.0 1.7 0.00 0.00 0.00 78 1015.1
20260508133730 44 322 0.9 3.5 0.00 0.00 0.00 77 1014.9
20260508132738 44 281 0.0 1.7 0.00 0.00 0.00 77 1014.8
20260508131743 44 281 0.0 3.5 0.00 0.00 0.00 78 1014.7
20260508130727 43 22 0.0 1.7 0.00 0.00 0.00 77 1014.6
20260508125736 43 22 0.0 2.6 0.00 0.00 0.00 77 1014.4
20260508124740 43 21 1.7 2.6 0.00 0.00 0.00 76 1014.2
20260508123730 43 20 0.9 2.6 0.00 0.00 0.00 75 1014.1
20260508122736 43 21 1.7 2.6 0.00 0.00 0.00 75 1014.1
20260508121743 44 20 1.7 2.6 0.00 0.00 0.00 74 1014.0
20260508120737 43 19 0.9 2.6 0.00 0.00 0.00 74 1013.9
20260508115729 43 15 0.9 4.3 0.00 0.00 0.00 74 1013.8
20260508114734 43 51 0.9 2.6 0.00 0.00 0.00 74 1013.7
20260508113739 43 52 0.9 2.6 0.00 0.00 0.00 73 1013.6
20260508112742 44 53 0.9 2.6 0.00 0.00 0.00 73 1013.4
20260508111732 44 53 0.0 1.7 0.00 0.00 0.00 74 1013.4
20260508110737 44 53 0.0 1.7 0.00 0.00 0.00 73 1013.3
20260508105725 45 53 1.7 2.6 0.00 0.00 0.00 72 1013.2
20260508104732 44 53 0.9 1.7 0.00 0.00 0.00 73 1013.1
20260508103743 45 53 0.0 0.0 0.00 0.00 0.00 72 1013.0
20260508102748 45 53 0.9 2.6 0.00 0.00 0.00 70 1013.2
20260508101733 45 53 0.0 0.9 0.00 0.00 0.00 69 1013.0
20260508100737 45 53 0.9 3.5 0.00 0.00 0.00 71 1012.9
20260508095745 46 340 0.0 2.6 0.00 0.00 0.00 71 1013.0
20260508094752 46 338 0.0 2.6 0.00 0.00 0.00 70 1012.9
20260508093756 46 321 0.0 3.5 0.00 0.00 0.00 70 1012.9
20260508092741 46 19 0.9 2.6 0.00 0.00 0.00 70 1012.8
20260508091726 46 15 0.9 2.6 0.00 0.00 0.00 70 1012.9
20260508090736 46 15 0.0 2.6 0.00 0.00 0.00 69 1012.8
20260508085747 46 15 0.0 2.6 0.00 0.00 0.00 68 1012.5
20260508084730 47 15 1.7 2.6 0.00 0.00 0.00 66 1012.7
20260508083756 47 15 0.0 1.7 0.00 0.00 0.00 66 1012.9
20260508082739 48 14 0.9 4.3 0.00 0.00 0.00 67 1012.7
20260508081724 48 13 2.6 4.3 0.00 0.00 0.00 65 1012.8
20260508080728 49 108 0.9 3.5 0.00 0.00 0.00 65 1012.8
20260508075757 49 44 0.9 1.7 0.00 0.00 0.00 66 1012.7